Vertical_Velocity
2 1 -1 -3 -2 -0 0 1 2 2 2 3 2 -0 -2 -1 -1 -1 1 3 4 3 0 -2 -2 -1 1 2 1 1 -0 -0 -0 -0 -0 -0 -1 -1 -1 -1 -1 -2 -2 -2 -2 -2 -2 -2 -2 -2 -2 -3 -3 -3 -3 -3 -3 -3 -3 -3 -2 -2 -2 -1 -1 -1 -0 0 1 1 1 0 -0 -1 -1 -1 -1 -1 -1 -1 -1 -1 -1 -1 -1 -1
2 1 -0 -2 -2 -1 -1 1 3 3 2 3 2 -1 -2 -1 -1 -1 1 3 3 3 1 -2 -2 -1 0 0 1 0 -0 -0 -0 -0 0 -0 -0 -1 -1 -1 -1 -2 -2 -3 -3 -3 -2 -2 -2 -2 -2 -2 -3 -3 -3 -3 -3 -3 -3 -2 -2 -2 -2 -1 -1 -0 0 1 1 1 1 0 -0 -1 -1 -1 -1 -1 -1 -0 -0 -0 -0 -0 -0 -1
2 2 0 -1 -2 -2 -2 1 2 2 3 3 2 0 -1 -2 -1 -0 1 2 2 2 1 -0 -1 -1 -0 -0 -1 -1 -1 -0 -0 -0 0 -0 -0 -1 -1 -1 -2 -2 -2 -3 -3 -3 -3 -2 -2 -2 -2 -2 -2 -3 -3 -3 -3 -2 -2 -2 -2 -2 -1 -1 -0 0 0 1 1 1 0 0 -0 -1 -1 -1 -1 -1 -0 0 0 0 0 0 -0 -0
3 1 -0 -0 -2 -3 -2 0 1 2 4 3 2 1 0 -1 -2 -1 1 2 2 2 1 1 0 -0 -1 -1 -2 -2 -2 -1 -0 -0 -0 -0 -1 -1 -1 -1 -2 -2 -2 -3 -3 -3 -3 -2 -2 -2 -2 -2 -2 -2 -3 -2 -2 -2 -2 -2 -2 -1 -1 -1 -0 0 0 0 0 0 0 -0 -0 -1 -1 -1 -0 -0 0 0 1 1 0 0 0 0
2 0 -1 0 -2 -4 -3 -0 1 2 3 4 3 1 -0 -1 -2 -1 0 2 3 2 1 1 0 0 -1 -2 -3 -3 -3 -2 -1 -0 0 -0 -1 -1 -1 -1 -2 -2 -2 -3 -3 -3 -3 -2 -2 -2 -2 -2 -2 -2 -2 -2 -2 -2 -2 -1 -1 -1 -1 -0 0 0 0 0 -0 -0 -0 -1 -1 -1 -0 -0 -0 0 0 1 1 1 1 0 0 -0
1 -1 -1 -0 -2 -4 -3 -1 0 2 3 3 2 1 -0 -1 -1 -0 1 2 2 2 1 1 0 -0 -0 -2 -3 -4 -4 -3 -2 -1 0 -0 -0 -1 -1 -1 -2 -2 -2 -2 -3 -3 -3 -2 -2 -2 -2 -2 -2 -2 -2 -2 -2 -1 -1 -1 -1 -0 0 0 0 0 0 -0 -0 -1 -1 -1 -1 -1 -0 -0 0 0 1 1 1 1 1 1 0 -0
1 0 1 1 -1 -1 -0 -1 0 2 4 3 3 3 2 0 1 2 2 2 2 2 1 0 -0 -0 -1 -2 -3 -3 -4 -3 -2 -1 0 0 -0 -1 -1 -1 -1 -2 -2 -2 -2 -3 -3 -2 -2 -2 -1 -2 -2 -2 -2 -2 -1 -1 -1 -0 -0 0 0 0 0 -0 -0 -1 -1 -1 -1 -1 -1 -1 -0 -0 0 1 1 1 1 1 1 1 0 0
3 3 5 4 3 3 3 2 3 4 4 4 4 4 3 2 2 3 3 3 3 2 1 -0 -1 -1 -1 -2 -3 -3 -3 -3 -2 -2 -1 0 0 -0 -1 -1 -1 -1 -2 -2 -2 -2 -2 -2 -2 -1 -1 -1 -1 -2 -1 -1 -1 -1 -0 0 0 0 0 0 -0 -1 -1 -1 -1 -1 -1 -1 -1 -1 -0 0 0 1 1 1 2 1 1 1 1 0
6 6 6 5 5 4 3 3 4 4 4 4 4 5 4 2 2 2 4 3 2 2 2 -1 -1 -2 -2 -2 -2 -2 -2 -1 -2 -2 -2 -1 -0 -0 -1 -1 -1 -1 -2 -2 -2 -2 -2 -2 -1 -1 -1 -1 -1 -1 -1 -1 -0 0 0 0 0 0 0 -0 -1 -1 -1 -1 -1 -1 -1 -1 -1 -1 -0 0 1 1 2 2 2 1 1 1 1 1
6 5 4 2 2 2 2 2 2 3 4 2 3 5 5 3 2 2 3 1 0 1 0 -1 -1 -2 -3 -3 -2 -1 -1 -1 -1 -1 -1 -2 -1 0 -1 -1 -1 -2 -2 -2 -1 -1 -1 -1 -1 -1 -1 -1 -1 -1 -1 -0 0 0 1 1 0 -0 -0 -0 -1 -1 -1 -1 -1 -1 -1 -1 -1 -0 0 1 1 2 2 2 2 1 1 1 1 0
3 3 3 0 -1 -1 1 0 2 3 4 2 2 4 6 4 3 2 0 -1 -1 -1 -2 -2 -0 -0 -3 -3 -2 -0 1 -1 -1 -1 -1 -2 -2 -1 -1 -1 -1 -2 -2 -2 -1 -0 -0 -1 -1 -1 -1 -2 -1 -1 -0 -0 0 1 1 0 -0 -0 -1 -1 -1 -1 -1 -1 -1 -1 -1 -1 -0 0 0 1 1 2 2 2 2 1 1 0 0 0
4 5 5 2 0 -1 -1 -1 2 4 4 3 3 4 4 3 2 1 -2 -2 -0 -1 -4 -3 -1 0 -1 -3 -2 -0 3 1 -1 -2 -1 -2 -2 -1 -2 -2 -1 -1 -2 -2 -1 0 0 -1 -1 -1 -0 -2 -2 -1 0 -0 0 0 0 -0 -1 -1 -1 -1 -1 -1 -1 -1 -1 -1 -1 -0 -0 0 1 1 1 2 2 2 1 1 1 0 0 -0
5 7 6 4 3 2 0 0 2 3 4 4 4 4 2 1 0 -1 -3 -1 0 0 -3 -3 -2 -1 -1 -2 -2 -0 3 1 -0 -1 -1 -3 -2 -1 -2 -3 -2 -1 -1 -2 -1 1 1 -2 -2 -0 1 -2 -2 -1 1 0 -0 0 -0 -1 -1 -1 -1 -1 -1 -1 -1 -1 -1 -1 -0 -0 0 0 1 1 1 2 2 1 1 1 0 0 -0 -0
4 6 5 4 3 2 2 1 2 2 3 3 3 1 -2 -1 -0 -0 -1 -0 -0 -0 -1 -3 -2 -1 0 -2 -2 -0 3 1 -0 -1 -2 -3 -3 -2 -2 -3 -2 0 0 -2 -1 0 2 -1 -2 -1 1 -1 -2 -1 0 0 0 -0 -1 -1 -1 -1 -1 -1 -1 -1 -1 -1 -1 -1 -0 -0 0 0 1 1 1 1 1 1 1 1 0 0 0 -0
1 5 4 3 3 3 2 1 1 1 1 2 0 -2 -3 -0 1 1 1 -1 -1 -0 1 -3 -2 0 1 -2 -2 -0 2 2 1 -0 -3 -5 -3 -1 -1 -3 -2 1 3 -1 -2 -1 3 0 -1 -1 1 -0 -1 -1 -1 -0 -0 -1 -1 -1 -1 -1 -1 -1 -1 -1 -1 -1 -1 -1 -0 -0 0 1 1 1 1 1 1 1 1 0 0 0 0 0
-1 3 3 2 3 3 1 1 1 1 0 1 -0 -1 -1 -0 1 1 2 -3 -2 0 2 -1 -1 -1 -2 -2 -1 0 1 1 2 1 -1 -6 -5 -1 3 -3 -3 0 4 0 -2 -1 2 1 -0 -1 -0 -1 -1 -1 -1 -1 -1 -1 -1 -1 -1 -0 -0 -1 -1 -1 -1 -1 -1 -0 -0 0 0 1 1 1 1 1 1 0 0 0 0 0 0 0
1 1 1 3 4 2 0 2 1 0 1 1 0 -1 -0 -1 -0 1 0 -3 -2 1 1 1 1 -0 -4 -3 -2 -1 1 -1 0 2 5 -4 -6 -3 3 -2 -3 -0 4 1 -1 -1 1 1 0 0 -0 -1 -1 -1 -2 -2 -2 -2 -2 -1 -0 0 0 -0 -1 -1 -1 -1 -1 -0 0 1 1 1 1 1 1 1 0 0 0 0 0 0 0 1
5 1 1 3 2 1 2 2 0 -0 2 1 -1 -2 -1 -2 -1 -0 -1 -1 -0 1 -1 2 1 -0 -1 -3 -5 -4 4 -2 -2 1 9 0 -4 -3 2 -0 -1 -1 3 0 -1 -1 1 1 1 0 -1 -1 -1 -1 -3 -3 -4 -3 -3 -2 -1 0 1 0 -0 -1 -1 -1 -0 0 1 1 1 1 1 1 1 1 0 0 0 0 0 0 1 1
4 2 1 0 0 1 3 1 1 1 3 -0 -1 -1 -2 -3 -1 0 -2 -1 0 1 -1 0 -0 -1 2 -3 -6 -4 5 -2 -3 1 9 3 -2 -3 2 1 -0 -1 2 0 -2 -2 -0 1 1 0 -1 -2 -1 -1 -3 -4 -5 -5 -4 -2 -1 -0 0 -0 -1 -1 -1 -1 -0 1 1 1 1 1 1 1 0 0 0 0 0 0 0 1 1 1
-1 0 0 -1 -0 1 1 1 2 3 1 -1 -0 0 -3 -3 -0 1 -3 -0 -0 -1 -3 -0 -1 -1 1 -2 -4 -2 5 1 -1 1 6 3 -2 -3 4 3 0 -1 3 1 -2 -3 -1 1 2 1 -1 -1 -1 -1 -2 -4 -5 -5 -3 -2 -1 -1 -1 -1 -1 -1 -1 -0 0 1 1 1 1 1 0 0 0 0 0 0 0 0 1 1 1 1
-2 -1 -2 0 0 -1 -3 2 4 3 -1 -1 1 2 -1 0 0 -1 -3 -1 -2 -4 -3 -0 -2 -3 1 0 -0 1 7 4 -0 -2 2 1 -2 -3 4 3 1 1 4 1 -1 -3 -2 1 3 3 1 -0 0 0 -1 -3 -4 -3 -2 -1 -1 -1 -1 -1 -1 -1 -1 -0 0 1 1 1 1 0 -0 -0 -0 -0 0 0 0 1 1 1 1 1
-0 -2 -2 1 -0 -3 -3 3 4 2 -2 2 3 3 2 3 1 -3 -4 -2 -3 -5 -3 -2 -2 -2 2 3 3 4 9 4 -0 -3 0 0 -2 -3 3 1 0 1 5 2 -2 -4 -2 2 3 2 1 1 1 1 -1 -3 -3 -2 -1 -0 -1 -1 -1 -1 -1 -0 -0 0 0 1 1 0 0 -0 -0 -0 -0 -0 0 0 0 1 1 1 1 1
-0 -1 -0 0 -2 -3 -1 3 2 1 1 4 4 4 5 5 2 -3 -5 -3 -4 -6 -4 -2 -2 -1 2 4 4 5 7 4 0 -2 0 -1 -3 -3 1 -0 -0 1 4 2 -2 -5 -3 2 3 2 0 0 2 2 -0 -2 -3 -2 -0 -0 -1 -1 -1 -0 0 0 0 0 0 0 0 0 -0 -0 -0 -0 -0 -0 -0 0 0 0 1 1 1 1
-1 -1 -0 -1 -2 -2 0 2 1 1 3 4 4 4 6 5 1 -2 -3 -3 -4 -5 -4 -2 -1 -0 1 4 4 3 3 5 3 -1 -1 -1 -2 -2 -1 0 0 1 2 2 -1 -5 -6 -0 3 3 0 -2 0 2 0 -2 -2 -2 -1 -1 -1 -0 1 1 1 1 1 1 1 0 0 0 -0 -0 -0 -0 -0 -0 -0 -0 0 0 0 1 1 2
-1 -2 -2 -2 -2 -2 -0 0 1 2 4 4 4 4 5 4 1 -2 -2 -2 -2 -2 -3 -1 -1 -1 -0 4 3 1 1 6 4 -0 -2 -0 -1 -2 -1 1 1 -1 -2 3 2 -2 -6 -3 1 4 2 -2 -2 0 1 -1 -2 -2 -3 -3 -2 0 2 2 2 1 1 1 1 1 0 0 -0 -0 0 0 0 0 -0 -0 -0 0 0 1 2 2
-1 -2 -3 -2 -2 -1 -0 0 1 2 2 3 3 4 4 3 2 -0 -1 -1 -1 -1 -2 -2 -1 -0 1 3 1 -0 2 4 3 -0 0 0 -1 -2 -0 3 0 -4 -4 3 4 1 -5 -4 0 4 3 -2 -2 -0 1 -0 -2 -3 -4 -4 -2 -0 2 2 2 1 1 1 1 1 0 0 0 0 0 0 0 0 -0 -0 -0 0 1 1 2 2
-2 -2 -2 -2 -1 -0 0 1 1 1 1 2 2 3 4 3 2 1 -1 -1 -0 -0 -4 -2 -0 1 1 2 0 -1 2 3 1 0 3 1 -2 -3 0 3 -1 -5 -4 2 4 3 -2 -4 -1 3 3 -1 -1 0 0 -0 -1 -3 -4 -4 -3 -1 1 1 1 1 1 1 1 1 0 0 0 0 0 0 0 0 -0 -0 -0 0 1 2 2 2
-2 -2 -2 -2 -1 -0 1 1 1 1 0 1 1 2 3 3 3 1 -2 1 1 -1 -6 -1 3 3 -0 -1 -1 -1 2 2 1 1 4 1 -2 -4 0 1 -2 -5 -0 2 2 2 2 -2 -1 0 1 1 2 3 -0 -1 -1 -2 -3 -3 -2 -1 -0 0 1 1 1 1 1 0 0 0 0 -0 0 0 -0 -0 -0 -0 -0 0 1 2 2 1
-2 -2 -2 -2 -1 -0 1 1 1 0 0 0 1 1 2 4 3 0 -3 2 3 -1 -7 1 5 4 -2 -3 -3 -0 3 3 2 2 3 0 -3 -3 3 -0 -5 -6 4 2 -1 -1 4 1 -0 -1 -3 1 5 6 1 -1 -2 -2 -2 -2 -2 -2 -1 -1 0 1 1 0 0 -0 0 0 0 -0 -0 -0 -0 -0 -0 -0 0 1 1 2 2 1
-2 -2 -2 -2 -2 -0 0 0 0 0 0 0 1 1 2 3 2 -0 -3 3 3 0 -4 1 4 3 -3 -4 -3 -0 2 4 3 2 1 -1 -3 -2 6 -1 -8 -8 5 2 -2 -4 -1 2 2 -0 -5 -1 4 7 4 1 -1 -2 -2 -2 -2 -2 -1 -1 -1 -0 1 0 -1 -1 -0 0 0 -0 -0 -0 -0 -1 -1 -1 0 1 1 2 2 1
-3 -1 -3 -4 -2 -0 0 -0 -0 0 0 0 1 2 3 3 2 -0 -1 2 3 1 -1 1 1 0 -2 -2 -2 -2 -1 3 4 2 1 -2 -3 -1 8 -1 -10 -11 3 5 -0 -6 -7 -1 3 3 -2 -3 0 4 6 3 0 -2 -2 -1 -2 -2 -1 -1 -1 -1 0 0 -1 -1 -1 -0 -0 -0 -0 -0 -1 -1 -1 -1 -0 0 0 1 1 0
-3 -2 -4 -4 -2 -0 0 0 0 1 0 0 1 2 3 3 2 1 1 2 2 2 1 -0 -1 -1 -2 -2 -2 -3 -3 2 4 4 4 -1 -3 -1 9 1 -9 -12 -1 4 2 -4 -7 -5 -1 3 4 -1 -2 0 3 3 2 -1 -2 -2 -2 -3 -2 -0 -1 -2 -1 -0 -1 -1 -1 -0 -0 -0 -0 -0 -0 -1 -1 -1 -1 -0 0 0 0 -0
-2 -3 -4 -3 -2 -0 0 1 2 1 1 1 1 2 3 3 2 2 1 1 2 2 1 -1 -1 -2 -3 -2 -3 -4 -3 1 4 5 7 2 -2 -1 5 2 -5 -10 -5 0 0 -1 -3 -6 -3 1 4 2 1 -0 -2 0 1 0 -0 -2 -4 -5 -4 -1 -1 -2 -3 -1 -1 -1 -1 -0 -0 -0 -0 -0 -0 -0 -0 -1 -1 -0 0 0 0 -0
-3 -4 -5 -4 -2 -1 0 2 2 2 1 1 1 2 3 3 2 2 2 1 1 1 0 -0 -1 -2 -3 -3 -4 -4 -3 -0 3 6 8 4 1 -0 3 1 -3 -7 -4 -3 -2 -1 -1 -5 -3 -0 -1 -0 2 3 -0 -2 -2 -1 1 0 -3 -6 -7 -3 -2 -3 -5 -2 -2 -2 -2 -1 -0 -0 -0 -0 -0 -0 -0 -0 -1 -1 0 1 0 -0
-2 -4 -6 -5 -4 -2 -1 2 2 2 1 1 1 1 2 2 2 2 2 1 1 0 -1 -1 -1 -2 -3 -3 -4 -5 -5 -2 2 5 6 4 2 1 2 -1 -2 -3 -3 -6 -2 1 -1 -6 -4 0 -1 -3 -1 2 3 -0 -2 -2 0 1 -1 -4 -7 -4 -4 -5 -6 -3 -2 -3 -3 -2 -1 -0 -0 -0 -0 -0 -0 -0 -0 -1 -1 -0 -0 0
0 -2 -4 -4 -3 -3 -2 0 2 2 2 1 1 1 1 1 1 1 2 1 -0 -1 -1 -2 -2 -3 -3 -3 -3 -4 -6 -3 1 4 3 3 2 2 0 -3 -2 0 -1 -6 -3 2 1 -5 -5 -1 2 -1 -3 -3 -0 1 2 1 -1 -0 -1 -3 -5 -3 -3 -4 -5 -3 -3 -3 -3 -2 -1 -1 -1 -0 -0 -0 -0 -0 -0 -1 -1 -1 -1 -1
3 1 -0 -0 -1 -1 -2 0 2 3 2 1 1 0 0 -0 -0 0 1 -0 -1 -2 -2 -2 -3 -3 -3 -3 -3 -3 -5 -1 2 3 2 2 2 1 -1 -5 -3 2 2 -4 -4 -0 3 -1 -4 -4 0 -0 -1 -3 -4 -1 2 3 -0 -0 -1 -2 -4 -3 -2 -3 -4 -4 -3 -3 -2 -2 -1 -1 -1 -1 -1 -1 -1 -1 -1 -1 -2 -2 -2 -2
5 4 4 3 3 1 0 1 3 4 3 2 1 -0 -0 -1 -1 -1 -0 -1 -2 -2 -2 -2 -2 -2 -2 -2 -2 -2 -2 1 2 3 3 2 2 1 -1 -5 -3 0 3 -1 -2 -1 4 2 -0 -2 -3 -3 -1 -1 -2 -1 0 -0 -2 -0 1 0 -2 -3 -2 -2 -2 -3 -4 -3 -2 -2 -2 -2 -2 -2 -1 -1 -3 -3 -3 -3 -4 -4 -4 -3
7 7 5 5 4 3 2 3 3 4 4 2 0 -1 -0 -1 -0 -0 -0 -1 -2 -2 -1 -1 -1 -1 -1 -1 -1 -1 0 2 3 3 4 2 2 1 0 -2 -3 -2 1 1 1 1 3 2 2 1 -0 -2 -2 -2 -0 1 -0 -2 -4 -2 -1 0 -1 -2 -2 -2 -1 -2 -3 -4 -4 -2 -2 -2 -4 -2 -1 -1 -3 -4 -4 -4 -4 -6 -6 -6
8 7 5 5 4 3 2 1 2 2 3 0 -1 -1 0 1 1 1 1 -0 -1 -1 -1 0 0 0 0 1 2 2 2 3 3 4 4 2 1 1 1 -1 -2 -2 0 2 2 2 3 2 1 1 4 2 0 -1 0 0 -1 -2 -1 -1 -2 -3 -2 -1 -2 -2 -1 -0 -1 -2 -4 -3 -1 -1 -2 -2 -1 -0 -1 -3 -3 -3 -2 -4 -5 -7
7 6 5 4 4 3 0 -1 -0 1 1 -1 -1 -0 1 2 2 2 1 1 0 -0 -1 1 2 2 3 4 4 4 3 2 3 3 3 1 0 0 0 -0 -1 -1 1 1 1 2 5 3 1 1 4 4 2 1 1 1 -0 -1 1 1 -1 -2 -1 -1 -2 -3 -3 -1 1 1 -2 -2 -1 1 -0 0 0 1 1 0 -2 -3 -2 -2 -2 -3
4 4 4 5 4 2 -2 -2 -1 -0 -1 1 1 0 -0 2 3 2 1 1 1 -0 1 3 3 3 5 5 5 4 3 1 1 2 2 1 1 0 -0 -1 -1 0 1 1 0 1 3 3 2 1 3 4 3 1 -1 0 1 1 2 1 -0 -1 -1 -2 -2 -2 -4 -5 -1 1 -0 -1 -1 0 1 1 1 0 2 1 -0 -1 -2 -3 -2 -1
2 2 3 4 2 -0 -3 -1 -1 -1 0 2 2 0 0 3 2 1 1 1 0 -0 1 3 4 5 6 4 4 3 2 -1 -1 0 1 1 1 1 -0 -1 -1 0 2 1 -0 -1 0 3 3 1 -0 3 4 3 1 0 0 1 1 1 2 1 -1 -5 -4 -2 -4 -5 -4 -2 -2 -2 -1 0 2 2 1 0 1 0 -0 -1 -2 -3 -3 -3
1 1 2 2 1 -0 0 1 0 0 3 3 1 0 1 3 2 1 1 1 1 1 2 2 3 5 5 3 2 2 -0 -2 -1 0 0 0 1 2 1 0 -0 0 2 2 0 -2 -1 1 1 0 0 1 2 2 2 2 1 0 -1 -0 1 2 -1 -2 -3 -3 -6 -6 -4 -3 -4 -2 -1 0 2 2 1 0 1 0 -1 -2 -2 -3 -3 -3
1 1 1 1 1 2 3 1 1 2 4 2 1 1 2 2 1 1 1 2 2 2 3 3 4 4 2 1 2 1 -3 -3 -1 1 0 -0 0 1 2 1 0 0 1 1 0 0 1 -0 -1 -1 1 2 2 1 2 1 0 -0 -1 -1 -1 -1 -2 0 0 -2 -5 -5 -4 -3 -3 -2 -1 0 1 2 2 2 2 1 -1 -3 -3 -3 -3 -3
1 1 0 -0 1 2 0 -0 2 3 2 0 1 2 1 2 1 1 2 3 3 3 2 4 5 4 -1 -0 1 1 -3 -4 -2 0 0 -1 -1 -0 1 1 1 1 1 -1 -1 0 2 1 0 -0 1 2 1 2 2 1 -0 -2 -2 -1 -1 -3 -4 -2 -1 -2 -4 -4 -3 -3 -3 -1 -1 0 1 1 2 3 3 2 -0 -2 -4 -3 -3 -2
1 1 -1 -1 -1 -0 -2 1 3 3 1 1 2 2 2 2 1 1 2 3 4 4 3 5 5 4 -1 0 1 1 -2 -2 -2 -1 -0 -2 -2 -2 -1 -1 -1 -0 1 -1 -1 -0 1 1 2 2 3 2 1 0 1 1 0 -2 -3 -1 -1 -2 -4 -4 -4 -3 -3 -3 -3 -2 -2 -1 -1 -1 -0 1 2 3 3 2 0 -1 -3 -3 -3 -2
2 1 -2 -2 -2 -1 -1 2 3 3 1 2 2 2 1 1 2 2 1 3 4 4 3 4 4 3 0 0 1 1 1 -0 -1 -0 0 -2 -3 -3 -2 -2 -2 -2 -2 -1 -0 0 1 2 3 3 3 3 1 0 -0 1 -0 -1 -2 -0 0 -1 -4 -5 -4 -3 -4 -3 -2 -1 -0 -0 -1 -1 -0 1 2 4 4 2 -0 -2 -3 -4 -3 -2
3 0 -3 -2 -1 -0 -1 2 4 4 2 3 3 3 1 1 2 2 1 2 3 3 3 3 3 3 2 0 1 1 2 1 1 1 1 -1 -2 -3 -3 -3 -2 -2 -3 -1 0 1 1 2 3 4 4 3 1 -0 0 1 0 -1 -2 -0 1 0 -3 -4 -3 -3 -3 -4 -3 -1 -0 -1 -1 -0 0 1 2 4 5 3 0 -2 -3 -4 -3 -2
2 -1 -2 -1 -0 0 1 3 4 4 2 3 3 3 1 1 2 1 1 2 3 2 2 2 3 2 1 1 2 2 2 1 2 2 1 1 -0 -1 -3 -2 -1 -1 -2 -1 1 2 2 2 2 2 4 3 1 -0 -1 1 1 1 -1 -2 -0 1 -2 -3 -2 -2 -2 -3 -3 -1 -1 -2 -1 -0 1 0 1 3 6 5 2 -1 -4 -4 -3 -2
1 -1 -0 0 1 1 2 3 4 3 2 3 3 2 1 1 1 2 2 2 2 1 2 3 3 2 1 2 3 3 2 2 2 2 1 2 2 0 -2 -1 -0 0 -1 -0 1 3 3 2 1 0 1 1 1 1 -1 1 2 2 -1 -3 -1 -0 -2 -2 -1 -1 -1 -2 -2 -2 -1 -2 -2 -1 1 0 1 2 5 6 4 0 -3 -3 -3 -2
Height
5693 5693 5693 5694 5695 5697 5697 5698 5700 5701 5701 5702 5702 5702 5702 5703 5703 5704 5705 5706 5706 5706 5705 5705 5706 5706 5706 5707 5706 5706 5706 5706 5706 5706 5706 5705 5705 5705 5704 5704 5703 5703 5702 5702 5702 5701 5701 5701 5700 5699 5699 5698 5698 5697 5697 5696 5695 5694 5694 5693 5692 5691 5691 5690 5689 5688 5688 5687 5687 5687 5686 5686 5685 5685 5685 5685 5684 5684 5684 5683 5683 5682 5682 5681 5680 5680
5689 5689 5689 5690 5691 5693 5693 5695 5696 5697 5697 5698 5698 5698 5699 5699 5700 5700 5701 5702 5702 5702 5702 5701 5702 5702 5702 5702 5702 5702 5702 5702 5702 5702 5702 5702 5701 5701 5700 5700 5700 5699 5699 5698 5698 5697 5697 5697 5696 5696 5695 5695 5694 5693 5693 5692 5691 5691 5690 5689 5688 5687 5687 5686 5686 5685 5684 5684 5684 5683 5683 5683 5682 5682 5682 5682 5681 5681 5681 5680 5679 5679 5678 5677 5677 5676
5685 5686 5686 5687 5687 5689 5690 5691 5692 5693 5694 5694 5694 5695 5695 5696 5696 5697 5697 5698 5698 5698 5697 5697 5697 5698 5698 5698 5698 5698 5698 5698 5698 5698 5698 5697 5697 5697 5697 5696 5696 5695 5695 5694 5694 5694 5693 5693 5692 5692 5691 5691 5690 5689 5689 5688 5687 5687 5686 5685 5684 5684 5683 5682 5682 5682 5681 5681 5680 5680 5680 5680 5679 5679 5679 5678 5678 5677 5677 5677 5676 5675 5675 5674 5673 5672
5682 5682 5682 5683 5684 5685 5686 5687 5689 5690 5690 5691 5691 5691 5691 5692 5692 5693 5693 5694 5694 5694 5693 5694 5694 5694 5694 5694 5694 5694 5694 5694 5694 5694 5694 5693 5693 5693 5692 5692 5692 5692 5691 5691 5690 5690 5689 5689 5688 5688 5687 5687 5686 5686 5685 5684 5683 5682 5682 5681 5680 5680 5679 5679 5678 5678 5678 5677 5677 5677 5677 5676 5676 5676 5675 5675 5675 5674 5674 5673 5672 5672 5671 5670 5669 5669
5678 5678 5679 5679 5681 5682 5682 5684 5685 5686 5687 5687 5687 5687 5687 5688 5688 5689 5689 5690 5690 5690 5689 5690 5690 5690 5690 5689 5689 5689 5690 5690 5690 5690 5690 5689 5689 5689 5689 5688 5688 5687 5687 5687 5686 5686 5685 5685 5685 5684 5683 5683 5682 5682 5681 5680 5679 5679 5678 5677 5677 5676 5676 5675 5675 5675 5674 5674 5674 5674 5673 5673 5673 5672 5672 5672 5671 5671 5670 5670 5669 5668 5667 5667 5666 5665
5674 5675 5675 5676 5677 5677 5678 5680 5681 5682 5682 5683 5683 5683 5683 5683 5684 5684 5685 5686 5686 5686 5685 5686 5686 5686 5686 5686 5685 5685 5686 5686 5686 5686 5686 5686 5685 5685 5685 5684 5684 5684 5683 5683 5682 5682 5682 5681 5681 5680 5680 5679 5678 5677 5677 5676 5675 5675 5674 5673 5673 5672 5672 5672 5672 5671 5671 5671 5671 5670 5670 5670 5669 5669 5668 5668 5667 5667 5667 5666 5665 5664 5663 5662 5662 5661
5670 5671 5671 5672 5673 5673 5675 5676 5677 5678 5678 5679 5679 5679 5679 5679 5680 5680 5681 5681 5681 5681 5681 5682 5682 5682 5682 5682 5681 5681 5681 5682 5682 5682 5682 5682 5682 5681 5681 5681 5680 5680 5679 5679 5678 5678 5677 5677 5677 5676 5676 5675 5674 5673 5673 5672 5672 5671 5670 5670 5669 5669 5669 5668 5668 5668 5668 5667 5667 5667 5667 5666 5666 5665 5665 5664 5664 5663 5663 5662 5661 5660 5659 5658 5657 5657
5666 5667 5667 5668 5669 5669 5671 5672 5672 5673 5674 5674 5674 5674 5675 5675 5675 5676 5676 5676 5677 5677 5677 5677 5677 5677 5677 5677 5677 5677 5677 5677 5677 5677 5678 5678 5677 5677 5677 5677 5676 5676 5675 5675 5674 5674 5673 5673 5673 5672 5672 5671 5670 5669 5669 5668 5667 5667 5667 5666 5666 5666 5665 5665 5665 5664 5664 5664 5664 5663 5663 5662 5662 5662 5661 5661 5660 5659 5659 5658 5657 5656 5655 5654 5653 5652
5662 5662 5663 5663 5664 5665 5666 5667 5667 5668 5669 5669 5670 5670 5670 5670 5671 5671 5671 5672 5672 5672 5672 5673 5673 5673 5673 5673 5673 5673 5673 5673 5673 5673 5673 5673 5673 5673 5673 5672 5672 5672 5671 5671 5671 5670 5670 5669 5668 5668 5667 5667 5666 5665 5665 5664 5664 5663 5663 5662 5662 5662 5662 5662 5661 5661 5661 5660 5660 5660 5659 5659 5658 5658 5657 5657 5656 5655 5655 5654 5653 5652 5651 5650 5649 5648
5657 5657 5657 5658 5659 5660 5661 5662 5662 5663 5664 5664 5664 5665 5665 5666 5666 5666 5667 5667 5667 5667 5668 5668 5668 5668 5668 5668 5669 5670 5669 5669 5669 5669 5669 5669 5669 5669 5669 5668 5668 5667 5667 5667 5667 5666 5666 5665 5664 5664 5663 5662 5662 5661 5661 5660 5660 5660 5659 5659 5659 5658 5658 5658 5658 5657 5657 5657 5656 5656 5655 5655 5654 5654 5653 5652 5652 5651 5650 5649 5648 5647 5647 5645 5644 5643
5652 5652 5653 5653 5653 5654 5656 5657 5657 5657 5659 5660 5660 5660 5660 5661 5662 5662 5662 5662 5662 5663 5663 5664 5664 5664 5664 5664 5665 5665 5666 5665 5665 5665 5665 5665 5665 5665 5664 5664 5664 5663 5663 5663 5662 5662 5661 5661 5660 5659 5659 5658 5658 5657 5657 5657 5656 5656 5656 5655 5655 5655 5655 5654 5654 5654 5653 5653 5652 5652 5651 5651 5650 5650 5649 5648 5648 5647 5646 5645 5644 5643 5642 5641 5640 5639
5647 5648 5648 5648 5648 5649 5650 5652 5652 5653 5654 5655 5656 5656 5656 5656 5657 5657 5657 5657 5657 5658 5659 5659 5659 5660 5660 5661 5661 5661 5661 5661 5661 5660 5660 5660 5661 5660 5660 5660 5659 5659 5659 5659 5658 5658 5657 5657 5656 5655 5655 5654 5654 5653 5653 5653 5652 5652 5652 5652 5652 5651 5651 5651 5650 5650 5649 5649 5648 5648 5647 5647 5646 5646 5645 5644 5643 5642 5642 5641 5639 5638 5637 5636 5635 5634
5643 5644 5644 5644 5644 5645 5645 5647 5647 5649 5650 5650 5651 5651 5651 5651 5652 5653 5654 5653 5653 5654 5655 5655 5655 5655 5656 5656 5657 5657 5657 5657 5656 5656 5656 5656 5656 5656 5656 5656 5655 5655 5655 5655 5654 5653 5653 5652 5652 5651 5650 5650 5650 5649 5649 5649 5649 5648 5648 5648 5648 5647 5647 5647 5646 5646 5645 5645 5644 5644 5643 5642 5642 5641 5641 5640 5639 5638 5637 5636 5635 5634 5633 5632 5631 5629
5638 5639 5640 5640 5640 5641 5641 5642 5643 5644 5645 5646 5646 5647 5647 5647 5647 5649 5650 5649 5649 5649 5650 5651 5651 5651 5651 5652 5652 5652 5652 5652 5652 5652 5652 5652 5651 5651 5652 5651 5651 5650 5651 5651 5650 5649 5648 5648 5648 5647 5646 5646 5646 5646 5645 5645 5645 5645 5644 5644 5644 5644 5643 5643 5642 5642 5641 5641 5640 5640 5639 5638 5637 5637 5636 5635 5634 5633 5632 5632 5631 5629 5628 5627 5626 5625
5633 5634 5635 5636 5636 5637 5637 5638 5639 5640 5640 5641 5642 5642 5642 5642 5643 5644 5645 5645 5645 5645 5646 5647 5647 5646 5646 5647 5648 5648 5648 5648 5647 5647 5647 5647 5647 5647 5647 5647 5647 5646 5646 5647 5646 5645 5644 5644 5644 5643 5642 5642 5642 5642 5642 5641 5641 5641 5641 5640 5640 5640 5639 5639 5638 5637 5637 5636 5636 5635 5635 5634 5633 5632 5632 5631 5630 5629 5628 5627 5626 5625 5624 5622 5622 5620
5628 5630 5631 5631 5632 5632 5633 5634 5635 5636 5636 5636 5637 5637 5638 5638 5639 5639 5640 5640 5640 5641 5642 5642 5642 5642 5642 5642 5643 5644 5644 5644 5643 5643 5643 5643 5642 5642 5643 5643 5643 5642 5642 5642 5642 5641 5640 5640 5640 5639 5638 5638 5638 5638 5637 5637 5637 5637 5637 5637 5636 5636 5635 5634 5634 5633 5633 5632 5632 5631 5630 5630 5629 5628 5627 5626 5626 5625 5624 5622 5622 5620 5619 5618 5617 5616
5623 5625 5626 5627 5627 5628 5629 5630 5631 5631 5631 5631 5632 5633 5633 5634 5634 5634 5635 5635 5636 5636 5637 5637 5638 5638 5637 5637 5638 5639 5640 5640 5639 5638 5639 5639 5639 5638 5639 5639 5639 5637 5637 5637 5637 5637 5636 5636 5635 5635 5635 5634 5634 5633 5633 5633 5633 5633 5632 5632 5632 5632 5631 5630 5630 5629 5628 5628 5627 5627 5626 5625 5624 5624 5623 5622 5621 5620 5619 5618 5617 5616 5615 5613 5612 5611
5618 5619 5621 5622 5623 5624 5624 5626 5627 5627 5627 5627 5627 5628 5628 5629 5629 5630 5630 5631 5631 5632 5632 5633 5633 5633 5633 5633 5633 5633 5635 5636 5636 5634 5634 5635 5635 5634 5634 5635 5634 5633 5632 5632 5633 5632 5632 5632 5631 5631 5631 5630 5630 5629 5629 5629 5628 5628 5628 5628 5628 5627 5627 5626 5625 5625 5624 5623 5623 5622 5622 5621 5620 5619 5618 5617 5616 5615 5614 5613 5612 5611 5610 5609 5607 5606
5613 5614 5616 5617 5618 5619 5620 5621 5622 5622 5622 5623 5623 5623 5623 5624 5624 5625 5626 5626 5627 5627 5628 5628 5628 5629 5629 5629 5629 5628 5630 5632 5632 5631 5630 5630 5630 5630 5630 5630 5630 5629 5628 5628 5628 5628 5628 5628 5627 5627 5627 5626 5626 5625 5625 5624 5624 5624 5624 5624 5623 5623 5622 5622 5621 5620 5619 5619 5618 5617 5617 5616 5615 5614 5613 5612 5612 5611 5609 5608 5607 5606 5605 5604 5603 5602
5608 5609 5611 5612 5613 5614 5615 5616 5617 5618 5618 5618 5618 5619 5619 5619 5620 5621 5621 5622 5622 5622 5623 5624 5624 5624 5625 5625 5625 5625 5625 5627 5627 5627 5626 5625 5626 5626 5626 5626 5626 5625 5624 5624 5624 5624 5625 5624 5623 5623 5623 5622 5622 5621 5620 5620 5620 5620 5619 5619 5619 5618 5618 5617 5616 5616 5615 5614 5614 5613 5612 5611 5611 5610 5609 5608 5607 5606 5605 5604 5602 5602 5600 5599 5598 5597
5604 5605 5606 5607 5608 5609 5610 5611 5612 5613 5613 5614 5614 5615 5615 5615 5615 5616 5616 5617 5617 5617 5618 5619 5619 5620 5620 5621 5622 5621 5621 5622 5622 5622 5621 5621 5621 5621 5622 5622 5622 5621 5620 5619 5620 5621 5621 5620 5619 5619 5619 5618 5617 5617 5616 5616 5616 5615 5615 5615 5614 5614 5613 5612 5612 5611 5611 5610 5609 5608 5607 5607 5606 5605 5604 5603 5602 5601 5600 5599 5598 5597 5596 5594 5593 5592
5599 5600 5601 5602 5603 5604 5605 5606 5607 5607 5609 5610 5610 5611 5611 5611 5611 5611 5611 5611 5612 5613 5613 5614 5615 5615 5616 5617 5617 5617 5617 5617 5617 5617 5616 5616 5616 5616 5617 5618 5618 5617 5616 5615 5615 5616 5617 5616 5616 5615 5615 5614 5613 5612 5612 5612 5611 5611 5611 5610 5610 5609 5609 5608 5607 5607 5606 5605 5605 5604 5603 5602 5601 5600 5599 5598 5597 5596 5595 5594 5593 5592 5591 5590 5588 5587
5594 5595 5595 5596 5598 5599 5600 5601 5602 5603 5604 5605 5606 5606 5606 5607 5607 5606 5606 5606 5607 5608 5609 5610 5610 5611 5612 5612 5612 5612 5612 5612 5612 5612 5612 5611 5611 5611 5612 5614 5614 5613 5612 5611 5611 5612 5612 5612 5611 5611 5611 5610 5609 5608 5607 5607 5607 5607 5606 5606 5605 5605 5604 5603 5603 5602 5602 5601 5600 5599 5598 5597 5597 5596 5595 5594 5592 5592 5591 5589 5588 5587 5586 5585 5584 5583
5589 5590 5590 5592 5593 5594 5595 5596 5597 5598 5599 5601 5601 5601 5601 5602 5602 5601 5601 5602 5602 5604 5604 5605 5606 5607 5607 5608 5608 5608 5607 5607 5607 5608 5608 5607 5606 5607 5608 5610 5610 5609 5607 5607 5607 5608 5608 5607 5607 5606 5607 5606 5605 5604 5603 5602 5602 5602 5602 5601 5601 5600 5599 5599 5598 5598 5597 5596 5595 5594 5593 5593 5592 5591 5590 5589 5588 5587 5586 5585 5584 5582 5582 5580 5579 5578
5584 5585 5586 5587 5588 5589 5591 5592 5592 5593 5594 5596 5596 5597 5597 5597 5597 5597 5597 5597 5598 5599 5600 5601 5601 5602 5602 5603 5604 5603 5602 5602 5603 5604 5604 5602 5602 5602 5604 5605 5606 5605 5603 5602 5602 5603 5604 5603 5602 5602 5602 5602 5601 5600 5599 5598 5597 5597 5597 5596 5596 5595 5595 5594 5594 5593 5592 5592 5591 5590 5589 5588 5587 5586 5585 5584 5583 5582 5581 5580 5579 5578 5577 5576 5574 5573
5579 5580 5581 5582 5584 5585 5586 5587 5588 5589 5590 5591 5592 5592 5592 5592 5592 5592 5592 5593 5594 5595 5596 5596 5596 5597 5597 5598 5599 5599 5598 5598 5599 5599 5599 5598 5598 5598 5599 5600 5601 5601 5600 5598 5598 5599 5600 5599 5598 5597 5597 5597 5596 5595 5594 5593 5593 5592 5592 5591 5591 5591 5590 5590 5589 5588 5587 5587 5586 5585 5584 5583 5582 5582 5580 5579 5578 5577 5576 5575 5574 5573 5572 5571 5570 5568
5574 5575 5577 5578 5579 5581 5582 5582 5583 5584 5585 5586 5587 5587 5587 5587 5588 5588 5588 5588 5589 5591 5591 5592 5591 5592 5592 5594 5595 5594 5594 5594 5594 5595 5595 5595 5594 5594 5593 5595 5596 5597 5596 5594 5594 5594 5595 5595 5594 5593 5592 5592 5592 5591 5590 5589 5588 5587 5587 5587 5587 5586 5586 5585 5584 5584 5583 5582 5581 5580 5579 5578 5577 5577 5576 5574 5573 5572 5571 5570 5569 5568 5567 5566 5565 5563
5569 5570 5572 5573 5575 5576 5577 5578 5579 5579 5580 5581 5582 5582 5583 5583 5584 5584 5583 5583 5585 5586 5587 5587 5587 5587 5588 5589 5590 5590 5590 5590 5590 5590 5590 5591 5590 5589 5588 5590 5591 5592 5592 5590 5590 5590 5590 5590 5589 5589 5588 5587 5587 5586 5586 5585 5583 5582 5582 5582 5582 5582 5581 5580 5580 5579 5578 5577 5577 5576 5575 5573 5572 5572 5571 5569 5568 5567 5566 5565 5564 5563 5562 5561 5559 5558
5564 5565 5567 5568 5570 5571 5572 5573 5574 5575 5576 5577 5577 5578 5578 5579 5579 5580 5579 5579 5581 5582 5583 5582 5582 5583 5584 5584 5585 5585 5586 5587 5586 5586 5586 5587 5586 5584 5584 5585 5587 5588 5587 5586 5585 5585 5586 5585 5585 5585 5584 5583 5582 5581 5580 5580 5579 5578 5577 5577 5577 5576 5576 5575 5575 5574 5573 5572 5572 5571 5570 5568 5567 5567 5565 5564 5563 5562 5561 5560 5559 5558 5557 5556 5554 5553
5559 5560 5562 5563 5565 5566 5567 5568 5569 5570 5571 5572 5573 5573 5574 5574 5575 5575 5575 5575 5577 5578 5578 5578 5578 5578 5579 5580 5581 5581 5582 5582 5582 5582 5582 5582 5581 5579 5579 5581 5582 5582 5582 5582 5581 5580 5580 5580 5580 5580 5580 5578 5577 5576 5575 5575 5574 5573 5572 5572 5571 5571 5571 5570 5570 5569 5568 5567 5567 5566 5565 5563 5562 5561 5560 5559 5558 5557 5556 5555 5554 5552 5552 5550 5549 5548
5554 5555 5557 5558 5560 5561 5562 5564 5564 5565 5566 5567 5568 5569 5569 5570 5570 5570 5570 5571 5572 5573 5573 5573 5573 5574 5574 5576 5577 5577 5577 5577 5577 5577 5579 5579 5577 5575 5575 5576 5577 5577 5577 5577 5577 5576 5575 5574 5574 5575 5575 5574 5573 5571 5570 5569 5569 5568 5567 5567 5566 5566 5565 5565 5565 5564 5563 5562 5561 5561 5559 5558 5557 5556 5555 5554 5553 5552 5551 5549 5548 5547 5546 5545 5544 5543
5548 5550 5552 5553 5555 5556 5558 5559 5560 5560 5561 5562 5563 5564 5565 5565 5565 5566 5566 5567 5567 5568 5568 5568 5568 5569 5570 5571 5572 5573 5573 5573 5573 5573 5575 5574 5573 5571 5571 5571 5572 5572 5572 5572 5572 5571 5570 5569 5569 5569 5570 5569 5568 5567 5566 5565 5564 5563 5562 5562 5561 5560 5560 5560 5560 5559 5557 5557 5556 5555 5554 5553 5552 5551 5550 5549 5548 5547 5545 5544 5543 5542 5541 5540 5539 5538
5543 5545 5547 5548 5550 5552 5553 5554 5555 5556 5557 5557 5559 5559 5560 5561 5561 5561 5562 5562 5562 5563 5563 5564 5564 5564 5565 5566 5567 5568 5568 5569 5569 5569 5570 5570 5568 5567 5566 5567 5567 5567 5567 5567 5567 5567 5566 5565 5565 5564 5564 5564 5563 5562 5562 5560 5559 5558 5557 5557 5556 5555 5554 5554 5554 5553 5552 5552 5551 5550 5549 5548 5547 5546 5545 5544 5542 5541 5540 5539 5537 5537 5536 5535 5534 5532
5538 5540 5541 5543 5545 5547 5548 5549 5550 5551 5552 5553 5554 5554 5555 5556 5556 5556 5557 5557 5557 5558 5558 5559 5559 5559 5560 5561 5562 5563 5564 5565 5565 5565 5566 5565 5564 5562 5562 5562 5562 5562 5562 5562 5562 5561 5561 5561 5560 5560 5560 5559 5558 5557 5557 5556 5555 5553 5552 5552 5551 5550 5549 5549 5548 5548 5547 5546 5545 5544 5544 5543 5542 5541 5540 5538 5537 5536 5535 5533 5532 5531 5530 5530 5529 5527
5534 5535 5537 5538 5540 5542 5543 5544 5545 5546 5547 5548 5548 5549 5550 5551 5551 5551 5551 5552 5552 5552 5553 5553 5554 5554 5555 5556 5557 5557 5559 5560 5561 5561 5561 5560 5559 5558 5557 5557 5557 5557 5557 5557 5557 5556 5556 5556 5556 5556 5555 5554 5553 5552 5552 5551 5551 5549 5547 5546 5546 5545 5544 5543 5543 5542 5541 5541 5540 5539 5538 5537 5537 5536 5534 5533 5532 5531 5529 5528 5527 5526 5525 5524 5523 5522
5529 5530 5532 5533 5535 5537 5538 5540 5541 5541 5542 5543 5543 5544 5545 5545 5546 5546 5546 5547 5547 5547 5548 5548 5548 5549 5550 5551 5552 5553 5553 5554 5555 5556 5556 5555 5554 5553 5553 5552 5552 5552 5553 5552 5552 5551 5551 5550 5550 5550 5550 5550 5548 5547 5547 5546 5546 5545 5543 5542 5541 5540 5539 5538 5537 5537 5536 5535 5534 5534 5533 5532 5532 5530 5529 5528 5527 5525 5524 5523 5522 5521 5519 5518 5517 5516
5524 5525 5527 5528 5530 5532 5533 5535 5536 5536 5537 5537 5538 5538 5539 5540 5540 5541 5541 5541 5542 5542 5543 5543 5544 5544 5545 5546 5547 5548 5548 5549 5550 5551 5551 5550 5549 5549 5548 5547 5547 5547 5548 5547 5547 5546 5546 5546 5545 5545 5545 5544 5544 5543 5542 5541 5541 5540 5538 5537 5536 5535 5534 5533 5532 5532 5531 5530 5529 5528 5528 5527 5526 5525 5523 5522 5521 5520 5519 5517 5516 5515 5514 5512 5511 5510
5520 5520 5522 5523 5525 5527 5528 5529 5530 5531 5532 5532 5532 5533 5533 5534 5535 5535 5536 5536 5537 5537 5538 5538 5539 5539 5540 5541 5542 5543 5543 5544 5545 5545 5545 5544 5544 5543 5543 5542 5542 5542 5543 5543 5542 5542 5541 5540 5540 5539 5539 5539 5538 5538 5537 5537 5536 5535 5533 5532 5531 5531 5529 5528 5527 5527 5526 5525 5524 5523 5522 5522 5521 5519 5518 5517 5516 5514 5513 5511 5510 5509 5508 5506 5505 5503
5515 5515 5516 5517 5519 5520 5522 5523 5524 5525 5526 5526 5527 5527 5528 5529 5530 5530 5531 5531 5532 5532 5533 5533 5534 5535 5535 5536 5537 5537 5538 5539 5539 5539 5539 5539 5538 5538 5537 5537 5537 5537 5537 5537 5537 5537 5536 5536 5535 5534 5534 5533 5533 5532 5532 5532 5531 5530 5528 5527 5526 5525 5524 5523 5522 5522 5521 5520 5519 5518 5517 5516 5515 5514 5513 5511 5510 5509 5507 5506 5504 5502 5502 5500 5499 5497
5509 5510 5511 5512 5513 5514 5515 5517 5517 5518 5519 5520 5521 5522 5522 5523 5524 5525 5525 5526 5527 5527 5528 5528 5529 5530 5530 5531 5532 5532 5533 5533 5534 5533 5533 5533 5532 5532 5532 5532 5532 5532 5532 5532 5532 5532 5532 5531 5530 5529 5529 5528 5528 5527 5526 5526 5525 5524 5524 5522 5521 5519 5518 5518 5518 5517 5516 5515 5515 5513 5512 5511 5510 5509 5508 5507 5505 5504 5502 5500 5499 5497 5496 5495 5494 5492
5503 5504 5505 5506 5507 5508 5509 5510 5511 5512 5513 5514 5515 5516 5517 5518 5519 5520 5520 5521 5521 5522 5522 5523 5524 5525 5525 5526 5526 5527 5527 5527 5528 5528 5527 5527 5527 5526 5526 5526 5526 5526 5527 5527 5527 5527 5527 5526 5525 5524 5524 5523 5523 5522 5521 5520 5520 5519 5518 5517 5516 5514 5513 5513 5513 5512 5512 5511 5510 5508 5507 5506 5505 5504 5503 5502 5500 5499 5497 5496 5494 5492 5490 5489 5488 5488
5497 5498 5499 5500 5501 5502 5503 5504 5505 5506 5507 5509 5510 5511 5512 5513 5514 5514 5515 5515 5516 5516 5517 5518 5519 5520 5520 5520 5520 5521 5521 5522 5522 5522 5522 5521 5521 5521 5521 5521 5521 5521 5521 5521 5521 5521 5521 5521 5521 5520 5518 5518 5518 5517 5516 5515 5514 5514 5513 5512 5511 5510 5509 5507 5507 5507 5507 5506 5504 5503 5502 5502 5500 5499 5498 5497 5495 5493 5492 5491 5489 5487 5486 5484 5483 5482
5491 5492 5493 5494 5495 5496 5497 5498 5500 5501 5502 5504 5505 5505 5506 5507 5508 5509 5509 5510 5510 5511 5512 5513 5514 5515 5515 5514 5514 5515 5515 5515 5516 5516 5516 5516 5516 5515 5515 5515 5515 5515 5516 5516 5516 5515 5515 5515 5515 5515 5513 5513 5513 5512 5511 5509 5509 5508 5507 5507 5506 5506 5505 5503 5502 5502 5502 5500 5499 5498 5497 5497 5495 5494 5493 5492 5490 5489 5487 5485 5484 5482 5481 5479 5478 5477
5485 5486 5487 5488 5489 5490 5492 5493 5494 5496 5497 5498 5499 5500 5500 5501 5502 5503 5504 5504 5505 5505 5506 5507 5508 5509 5509 5509 5508 5509 5509 5509 5510 5510 5510 5510 5510 5510 5510 5510 5510 5510 5510 5510 5510 5510 5509 5509 5509 5509 5508 5508 5507 5507 5505 5504 5504 5503 5502 5501 5501 5501 5500 5498 5497 5496 5496 5495 5494 5493 5492 5492 5491 5490 5488 5487 5486 5484 5482 5480 5478 5477 5475 5475 5474 5473
5479 5480 5481 5482 5483 5485 5487 5488 5489 5490 5492 5493 5494 5494 5495 5496 5497 5498 5499 5499 5500 5500 5501 5502 5503 5503 5503 5502 5502 5503 5504 5504 5504 5505 5505 5505 5505 5505 5505 5505 5505 5504 5505 5505 5505 5505 5505 5505 5504 5503 5503 5503 5503 5502 5500 5499 5499 5498 5497 5497 5497 5496 5495 5494 5492 5492 5491 5490 5489 5488 5487 5487 5487 5485 5484 5483 5481 5480 5478 5476 5474 5472 5471 5469 5469 5468
5473 5474 5475 5476 5478 5480 5481 5482 5483 5485 5487 5487 5488 5488 5489 5490 5492 5493 5493 5494 5495 5495 5496 5497 5497 5497 5497 5497 5497 5498 5498 5499 5499 5499 5499 5500 5499 5499 5499 5499 5499 5499 5499 5499 5499 5499 5500 5500 5499 5498 5498 5498 5497 5497 5496 5495 5494 5493 5492 5492 5492 5492 5490 5489 5488 5487 5486 5485 5484 5483 5482 5482 5482 5481 5480 5479 5477 5475 5473 5471 5469 5467 5466 5465 5464 5463
5467 5468 5469 5471 5472 5474 5475 5477 5478 5479 5481 5482 5482 5483 5484 5485 5486 5487 5488 5489 5489 5490 5491 5491 5492 5492 5492 5491 5492 5493 5493 5493 5494 5494 5494 5494 5494 5494 5494 5494 5494 5494 5495 5495 5494 5494 5495 5494 5494 5494 5494 5493 5492 5491 5491 5491 5490 5490 5488 5487 5487 5487 5486 5484 5483 5482 5482 5481 5480 5479 5478 5478 5477 5476 5475 5474 5473 5471 5469 5467 5464 5463 5462 5460 5459 5458
5461 5462 5463 5465 5467 5468 5470 5471 5473 5474 5475 5476 5477 5477 5478 5479 5481 5482 5482 5483 5484 5485 5486 5486 5487 5487 5487 5487 5487 5488 5489 5489 5489 5489 5489 5489 5489 5489 5489 5489 5489 5490 5490 5490 5490 5490 5490 5489 5489 5489 5489 5488 5488 5487 5486 5486 5486 5486 5484 5483 5482 5482 5481 5479 5478 5477 5477 5476 5475 5474 5474 5473 5473 5472 5471 5470 5468 5467 5465 5462 5460 5458 5457 5456 5455 5454
5455 5457 5458 5460 5461 5463 5464 5466 5467 5469 5470 5470 5471 5472 5473 5474 5475 5476 5477 5478 5479 5480 5481 5481 5482 5482 5482 5482 5483 5483 5484 5484 5485 5485 5485 5485 5485 5484 5484 5485 5485 5485 5485 5485 5485 5485 5485 5485 5484 5484 5484 5484 5483 5482 5482 5481 5481 5481 5480 5479 5478 5477 5476 5474 5473 5472 5472 5472 5471 5470 5469 5469 5468 5467 5467 5465 5464 5462 5461 5458 5456 5453 5452 5451 5450 5449
5450 5451 5453 5454 5456 5458 5459 5461 5462 5463 5464 5465 5466 5467 5468 5469 5470 5471 5472 5472 5474 5475 5476 5476 5477 5477 5477 5477 5478 5479 5480 5480 5480 5480 5480 5480 5480 5480 5480 5480 5480 5481 5481 5481 5481 5481 5481 5481 5480 5479 5479 5479 5479 5479 5477 5476 5476 5476 5475 5474 5473 5472 5472 5470 5469 5468 5467 5467 5466 5465 5465 5464 5463 5462 5462 5461 5460 5458 5457 5455 5452 5449 5447 5446 5446 5445
5445 5446 5447 5449 5451 5453 5454 5456 5457 5458 5459 5460 5461 5462 5462 5463 5465 5466 5467 5467 5469 5470 5470 5471 5472 5473 5473 5473 5474 5475 5475 5476 5476 5476 5476 5476 5476 5476 5476 5476 5476 5477 5477 5477 5477 5477 5477 5477 5476 5475 5474 5473 5474 5475 5474 5472 5471 5470 5470 5469 5468 5467 5467 5466 5464 5463 5463 5462 5462 5461 5460 5459 5458 5457 5457 5457 5455 5454 5452 5451 5448 5446 5443 5442 5442 5441